GSAT0221 (GALILEO 25) (43564 NORAD) Tracking and Keplerian Element Data

This shows tracking and keplerian element data for the satellite.

Feedback or suggestion? Click here.




ElementValue
Catalog43564
NameGSAT0221 (GALILEO 25)
Epoch Orbit3871
Epoch Day286.08357717
Epoch Year2024
RAAN358.3233
Inclination57.2988
Eccentricity0.0005112
Argument of Perigee264.0272
Mean Anonmoly95.9685
Mean Motion1.70475988
Decay Rate-7.8E-07
L11 43564U 18060A 24286.08357717 -.00000078 00000+0 00000+0 0 9991
L22 43564 57.2988 358.3233 0005112 264.0272 95.9685 1.70475988 38712



Live tracking and technical data element details for GSAT0221 (GALILEO 25) (NORAD 43564). GSAT0221 (GALILEO 25) can be tracked NOW for your location showing map with azimuth and elevation plus other details from your city location.







IsCatalogInMostPopularTable: catalog: 43564, numindb: 609
Update: records affected: 1



GetName: 43564 GSAT0221 (GALILEO 25)

Hit Count: updated at: Tue, 03 Dec 2024 02:39:22 GMT